Time,TemperatureF,DewpointF,PressureIn,WindDirection,WindDirectionDegrees,WindSpeedMPH,WindSpeedGustMPH,Humidity,HourlyPrecipIn,Conditions,Clouds,dailyrainin,SoftwareType,DateUTC
2013-01-24 07:35:00,32.4,6.5,30.23,SSW,202,3.0,8.0,33,0.00,,---,0.00,VWS V14.01,2013-01-24 14:35:00,
2013-01-24 08:00:00,33.0,8.4,30.22,SSW,208,2.0,3.0,35,0.00,,---,0.00,VWS V14.01,2013-01-24 15:00:00,
2013-01-24 08:05:00,33.6,9.5,30.21,SSW,208,4.0,6.0,36,0.00,,---,0.00,VWS V14.01,2013-01-24 15:05:00,
2013-01-24 08:10:00,32.3,9.0,30.22,SSW,207,0.0,0.0,37,0.00,,---,0.00,VWS V14.01,2013-01-24 15:10:00,
2013-01-24 08:15:00,31.2,9.1,30.23,SSW,207,0.0,1.0,39,0.00,,---,0.00,VWS V14.01,2013-01-24 15:15:00,
2013-01-24 08:21:00,31.8,9.1,30.22,SSW,208,0.0,2.0,38,0.00,,---,0.00,VWS V14.01,2013-01-24 15:21:00,
2013-01-24 08:26:00,32.3,10.1,30.22,SSW,208,2.0,2.0,39,0.00,,---,0.00,VWS V14.01,2013-01-24 15:26:00,
2013-01-24 08:31:00,32.8,10.0,30.22,SSW,208,4.0,4.0,38,0.00,,---,0.00,VWS V14.01,2013-01-24 15:31:00,
2013-01-24 08:36:00,33.5,10.0,30.22,SSW,208,1.0,1.0,37,0.00,,---,0.00,VWS V14.01,2013-01-24 15:36:00,
2013-01-24 08:41:00,34.1,10.6,30.21,SSW,208,1.0,2.0,37,0.00,,---,0.00,VWS V14.01,2013-01-24 15:41:00,
2013-01-24 08:46:00,35.5,11.8,30.20,SSW,208,1.0,5.0,37,0.00,,---,0.00,VWS V14.01,2013-01-24 15:46:00,
2013-01-24 08:51:00,37.3,11.5,30.17,SSW,208,0.0,0.0,34,0.00,,---,0.00,VWS V14.01,2013-01-24 15:51:00,
2013-01-24 08:56:00,38.6,12.0,30.16,SSW,207,0.0,1.0,33,0.00,,---,0.00,VWS V14.01,2013-01-24 15:56:00,
2013-01-24 09:01:00,39.3,13.3,30.16,SSW,208,0.0,1.0,34,0.00,,---,0.00,VWS V14.01,2013-01-24 16:01:00,
2013-01-24 09:06:00,39.4,13.4,30.17,SSW,208,0.0,1.0,34,0.00,,---,0.00,VWS V14.01,2013-01-24 16:06:00,
2013-01-24 09:11:00,39.8,14.4,30.17,SSW,208,0.0,1.0,35,0.00,,---,0.00,VWS V14.01,2013-01-24 16:11:00,
2013-01-24 09:16:00,40.3,14.8,30.17,SSW,208,0.0,0.0,35,0.00,,---,0.00,VWS V14.01,2013-01-24 16:16:00,
2013-01-24 09:21:00,40.3,13.5,30.16,SSW,208,4.0,4.0,33,0.00,,---,0.00,VWS V14.01,2013-01-24 16:21:00,
2013-01-24 09:26:00,41.4,12.3,30.14,SSW,207,0.0,2.0,30,0.00,,---,0.00,VWS V14.01,2013-01-24 16:26:00,
2013-01-24 09:31:00,42.9,13.6,30.12,SSW,208,5.0,5.0,30,0.00,,---,0.00,VWS V14.01,2013-01-24 16:31:00,
2013-01-24 09:36:00,44.2,14.0,30.12,SSW,208,1.0,2.0,29,0.00,,---,0.00,VWS V14.01,2013-01-24 16:36:00,
2013-01-24 09:41:00,45.0,14.7,30.10,SSW,209,4.0,10.0,29,0.00,,---,0.00,VWS V14.01,2013-01-24 16:41:00,
2013-01-24 09:46:00,47.5,17.6,30.08,West,281,7.0,20.0,30,0.00,,---,0.00,VWS V14.01,2013-01-24 16:46:00,
2013-01-24 09:51:00,49.6,18.7,30.06,West,280,4.0,8.0,29,0.00,,---,0.00,VWS V14.01,2013-01-24 16:51:00,
2013-01-24 09:56:00,47.7,17.8,30.08,WNW,294,10.0,10.0,30,0.00,,---,0.00,VWS V14.01,2013-01-24 16:56:00,
2013-01-24 10:01:00,46.2,17.2,30.10,WNW,296,5.0,12.0,31,0.00,,---,0.00,VWS V14.01,2013-01-24 17:01:00,